STARLINK-34556 (64733 NORAD) Tracking and Keplerian Element Data

This shows tracking and keplerian element data for the satellite.

Feedback or suggestion? Click here.




ElementValue
Catalog64733
NameSTARLINK-34556
Epoch Orbit2754
Epoch Day353.98698515
Epoch Year2025
RAAN188.7962
Inclination53.1555
Eccentricity9.91E-05
Argument of Perigee177.7588
Mean Anonmoly182.3418
Mean Motion15.30213007
Decay Rate0.00022793
L11 64733U 25144K 25353.98698515 .00022793 00000+0 77901-3 0 9997
L22 64733 53.1555 188.7962 0000991 177.7588 182.3418 15.30213007 27549



Live tracking and technical data element details for STARLINK-34556 (NORAD 64733). STARLINK-34556 can be tracked NOW for your location showing map with azimuth and elevation plus other details from your city location.







IsCatalogInMostPopularTable: catalog: 64733, numindb: 4
Update: records affected: 1



GetName: 64733 STARLINK-34556

Hit Count: updated at: Tue, 10 Feb 2026 03:40:12 GMT